Location: Ústí nad Labem
(50.6611°N, 14.0531°E)
Time: 21:57:47
(UTC+02:00)

Envisat - Pass Details

Date: 02 March 2024
Orbit: 762 x 764 km, 98.3° (Epoch: 13 April)

Event Time Altitude Azimuth Distance (km) Brightness Sun altitude
Rises 02:23:08 0° 25° (NNE) 3,242 7.1 -39.0°
Reaches altitude 10° 02:26:02 10° 42° (NE) 2,310 6.2 -38.7°
Enters shadow 02:28:45 19° 73° (ENE) 1,748 5.3 -38.4°
